"Pseudo-MPEC" for C3ZW0U2

Created 2020 Nov 24 16:07:12 UT using Find_Orb

Click here for an explanation of pseudo-MPECs

 
 Astrometry: 
     C3ZW0U2  C2020 11 22.21778003 07 42.12 +31 34 42.5    ~BM67 21.46GVNEOCPG96
     C3ZW0U2  C2020 11 22.22292703 07 41.23 +31 34 35.8    ~BM67 21.16GVNEOCPG96
     C3ZW0U2  C2020 11 22.22806203 07 40.25 +31 34 29.7    ~BM67 22.05GVNEOCPG96
     C3ZW0U2  C2020 11 22.23319703 07 39.30 +31 34 23.1    ~BM67 20.60GVNEOCPG96
     C3ZW0U2 KC2020 11 22.25101803 07 36.15 +31 33 59.9    ~BM6M 21.02GVNEOCPV06
     C3ZW0U2 KC2020 11 22.25369003 07 35.66 +31 33 56.4    ~BM6M 21.24GVNEOCPV06
     C3ZW0U2 KC2020 11 22.25635503 07 35.17 +31 33 53.2    ~BM6M 20.97GVNEOCPV06
     C3ZW0U2 KC2020 11 22.33491303 07 20.96 +31 32 10.8    ~BM8b 21.37GVNEOCPV06
     C3ZW0U2 KC2020 11 22.33758003 07 20.49 +31 32 07.4    ~BM8b 21.39GVNEOCPV06
     C3ZW0U2 KC2020 11 22.34024803 07 20.01 +31 32 03.8    ~BM8b 21.27GVNEOCPV06
     C3ZW0U2 hC2020 11 222=HRM5uVGeLpIAstrometry.3SwsH.NFW#u41Prwn@Ou/JQ0iW\_L01
     C3ZW0U2 KC2020 11 22[kM4h\E.dk@BfTSqLPeGY:V]kgredacted;L#e]n8q7lS\!rMu:nL01
     C3ZW0U2 hC2020 11 22OGeVQ*#0DYm5?7$^OLwFcCTyxLMs@uIg`Yj\(houWpnHNRw)DMR=L01
     C3ZW0U2 pC2020 11 22%$DyD?e%[click)I=ek2`H\.q0`neDl)KDFPkOd+ejfHm]3_JMa,L01
     C3ZW0U2 KC2020 11 23.07623503 05 14.41 +31 16 12.4    ~BN2M 21.50GVNEOCPV06
     C3ZW0U2 KC2020 11 23.07978703 05 13.75 +31 16 07.5    ~BN2M 21.65GVNEOCPV06
     C3ZW0U2 KC2020 11 23.08333903 05 13.15 +31 16 03.3    ~BN2M 21.93GVNEOCPV06
     C3ZW0U2 KC2020 11 23[Xqv'\@hereMeEreuNV%OA0neQ=24*q8XYy9kp5LR/qTL\*m/)hsH21
     C3ZW0U2 KC2020 11 23xSJ;?9E7QWJPqo`B,Jv#XH:bH-K,OforE*\explanationIy!bxlH21
     C3ZW0U2 mC2020 11 24.23453203 02 02.19 +30 51 33.9    ~BO6b 21.05GVNEOCPG96
     C3ZW0U2 mC2020 11 24.23598003 02 02.03 +30 51 32.5    ~BO6b 20.93GVNEOCPG96
     C3ZW0U2 mC2020 11 24.23863003 02 01.57 +30 51 29.5    ~BO6b 21.43GVNEOCPG96

Station data:
(G96) Mt. Lemmon Survey  (N32.442754 W110.788720)  US/Arizona.  Observers T.
   A. Pruyne, B. M. Africano, E. J. Christensen, G. A. Farneth, D. C. Fuls,
   A. R. Gibbs, A. D. Grauer, H. Gröller, J. A. Johnson, R. A. Kowalski, S.
   M. Larson, G. J. Leonard, D. Rankin, R. L. Seaman, F. C. Shelly. 1.5-m
   reflector + 10K CCD.
(H21) Astronomical Research Observatory, Westfield  (N39.483057 W87.968270)
   US/Illinois. 0.76-m f/3.0 astrograph + CCD.
(L01) Višnjan Observatory, Tičan  (N45.290900 E13.749300)  Croatia.
   Observers K. Korlević, E. Pettarin. Measurer E. Pettarin. 1.0-m f/2.9
   reflector + CCD.
(V06) Catalina Sky Survey-Kuiper  (N32.416847 W110.732550)  US/Arizona.
   Observers T. A. Pruyne, B. M. Africano, E. J. Christensen, G. A. Farneth,
   D. C. Fuls, A. R. Gibbs, A. D. Grauer, H. Gröller, J. A. Johnson, R. A.
   Kowalski, S. M. Larson, G. J. Leonard, D. Rankin, R. L. Seaman, F. C.
   Shelly. 1.55-m reflector + CCD.

Orbital elements:  C3ZW0U2
   Perihelion 2020 Aug 4.315948 +/- 1.03 TT =  7:34:57 (JD 2459065.815948)
Epoch 2020 Nov 24.0 TT = JDT 2459177.5   Earth MOID: 0.0636   Me: 0.0488
M  70.48072208 +/- 2.5              Ma: 0.0714                AutoNEOCP
n   0.63107239 +/- 0.0168           Peri.  333.38193 +/- 1.1
a   1.34611840 +/- 0.0239           Node   296.91259 +/- 1.4
e   0.7123760 +/- 0.0167            Incl.    6.31608 +/- 0.17
P   1.56/570.45d           H 20.7   G  0.15   U 10.0  
q 0.38717584 +/- 0.0153    Q 2.30506095 +/- 0.062
From 22 observations 2020 Nov. 22-24; mean residual 0".30
Residuals in arcseconds: 
201122 G96  .27-  .14-    201122 V06  .17+  .01+    201123 V06  .11+  .17+    
201122 G96  .27+  .23-    201122 V06  .17+  .10-    201123 H21  .27-  .35-    
201122 G96  .36-  .26+    201122 L01  .39+  .28+    201123 H21  .10+  .01+    
201122 G96  .61-  .27+    201122 L01  .13+  .32+    201124 G96  .63-  .36-    
201122 V06  .40+  .01+    201122 L01  .30-  .14-    201124 G96  .41+  .07+    
201122 V06  .33+  .04-    201122 L01  .39-  .64-    201124 G96  .16+  .43+    
201122 V06  .23+  .20+    201123 V06  .62+  .37+    
201122 V06  .04+  .08-    201123 V06  .02-  .08-    

Ephemerides (geocentric):
Date (UTC) HH   RA              Dec         delta   r     elong  mag " sig PA
---- -- -- --  -------------   -----------  ------ ------ -----  --- ---- ---
2020 11 24 16  03 00 53.199   +30 42 26.59  .69539 1.6646 163.0 21.7 .190 165
2020 11 24 17  03 00 46.626   +30 41 33.89  .69582 1.6650 163.0 21.7 .207 164
2020 11 24 18  03 00 40.065   +30 40 41.22  .69626 1.6653 162.9 21.7 .226 163
2020 11 24 19  03 00 33.517   +30 39 48.57  .69669 1.6656 162.9 21.7 .244 162
2020 11 24 20  03 00 26.981   +30 38 55.94  .69712 1.6660 162.8 21.7 .263 162
2020 11 24 21  03 00 20.458   +30 38 03.35  .69756 1.6663 162.8 21.7 .283 161
2020 11 24 22  03 00 13.948   +30 37 10.78  .69799 1.6666 162.8 21.7 .303 160
2020 11 24 23  03 00 07.450   +30 36 18.23  .69842 1.6670 162.7 21.7 .324 160
2020 11 25 00  03 00 00.965   +30 35 25.72  .69886 1.6673 162.7 21.7 .345 159
2020 11 25 01  02 59 54.492   +30 34 33.23  .69930 1.6676 162.6 21.7 .367 159
2020 11 25 02  02 59 48.031   +30 33 40.76  .69973 1.6680 162.6 21.7 .389 158
2020 11 25 03  02 59 41.583   +30 32 48.33  .70017 1.6683 162.6 21.7 .412 158
2020 11 25 04  02 59 35.148   +30 31 55.92  .70061 1.6686 162.5 21.7 .435 157
2020 11 25 05  02 59 28.725   +30 31 03.54  .70104 1.6690 162.5 21.7 .458 157
2020 11 25 06  02 59 22.315   +30 30 11.19  .70148 1.6693 162.4 21.7 .483 156
2020 11 25 07  02 59 15.916   +30 29 18.86  .70192 1.6696 162.4 21.7 .507 156
2020 11 25 08  02 59 09.531   +30 28 26.56  .70236 1.6700 162.4 21.7 .532 156
2020 11 25 09  02 59 03.158   +30 27 34.29  .70280 1.6703 162.3 21.7 .558 155
2020 11 25 10  02 58 56.797   +30 26 42.05  .70324 1.6706 162.3 21.7 .584 155
2020 11 25 11  02 58 50.448   +30 25 49.84  .70368 1.6710 162.2 21.7 .611 155
2020 11 25 12  02 58 44.112   +30 24 57.65  .70412 1.6713 162.2 21.7 .638 154
2020 11 25 13  02 58 37.789   +30 24 05.50  .70456 1.6716 162.2 21.7 .666 154
2020 11 25 14  02 58 31.478   +30 23 13.37  .70500 1.6720 162.1 21.7 .694 154
2020 11 25 15  02 58 25.179   +30 22 21.27  .70545 1.6723 162.1 21.7 .722 153
2020 11 25 16  02 58 18.892   +30 21 29.20  .70589 1.6726 162.0 21.7 .751 153
2020 11 25 17  02 58 12.618   +30 20 37.16  .70633 1.6730 162.0 21.7 .781 153
2020 11 25 18  02 58 06.356   +30 19 45.15  .70678 1.6733 161.9 21.8 .811 153
2020 11 25 19  02 58 00.107   +30 18 53.17  .70722 1.6736 161.9 21.8 .842 152
2020 11 25 20  02 57 53.870   +30 18 01.22  .70767 1.6740 161.9 21.8 .873 152
2020 11 25 21  02 57 47.645   +30 17 09.30  .70811 1.6743 161.8 21.8 .904 152
2020 11 25 22  02 57 41.432   +30 16 17.41  .70856 1.6746 161.8 21.8 .937 152
2020 11 25 23  02 57 35.232   +30 15 25.54  .70900 1.6750 161.7 21.8 .969 151
2020 11 26 00  02 57 29.044   +30 14 33.71  .70945 1.6753 161.7 21.8 1.00 151
2020 11 26 01  02 57 22.869   +30 13 41.91  .70990 1.6756 161.6 21.8 1.04 151
2020 11 26 02  02 57 16.705   +30 12 50.14  .71034 1.6760 161.6 21.8 1.07 151
2020 11 26 03  02 57 10.554   +30 11 58.40  .71079 1.6763 161.6 21.8 1.10 150
2020 11 26 04  02 57 04.415   +30 11 06.69  .71124 1.6766 161.5 21.8 1.14 150
2020 11 26 05  02 56 58.288   +30 10 15.02  .71169 1.6770 161.5 21.8 1.17 150
2020 11 26 06  02 56 52.174   +30 09 23.37  .71214 1.6773 161.4 21.8 1.21 150
2020 11 26 07  02 56 46.072   +30 08 31.75  .71259 1.6776 161.4 21.8 1.25 149
2020 11 26 08  02 56 39.982   +30 07 40.17  .71304 1.6780 161.3 21.8 1.28 149
2020 11 26 09  02 56 33.904   +30 06 48.62  .71349 1.6783 161.3 21.8 1.32 149
2020 11 26 10  02 56 27.838   +30 05 57.09  .71394 1.6786 161.2 21.8 1.36 149
2020 11 26 11  02 56 21.785   +30 05 05.60  .71439 1.6789 161.2 21.8 1.40 149
2020 11 26 12  02 56 15.744   +30 04 14.15  .71485 1.6793 161.2 21.8 1.44 148
2020 11 26 13  02 56 09.714   +30 03 22.72  .71530 1.6796 161.1 21.8 1.48 148
2020 11 26 14  02 56 03.697   +30 02 31.33  .71575 1.6799 161.1 21.8 1.52 148
2020 11 26 15  02 55 57.693   +30 01 39.97  .71621 1.6803 161.0 21.8 1.56 148